Location: Al Mulaqqa?ah
(24.1833°N, 32.8833°E)
Time: 21:58:25
(UTC+00:00)

GPS 2-17 Rocket1 - Pass Details

Date: 26 September 2021
Orbit: 570 x 658 km, 20.3° (Epoch: 28 October)

Event Time Altitude Azimuth Distance (km) Brightness Sun altitude
Rises 17:32:46 0° 252° (WSW) 2,944 7.5 -26.3°
Reaches altitude 10° 17:35:14 10° 246° (WSW) 2,024 6.4 -26.9°
Enters shadow 17:38:27 36° 217° (SW) 1,009 4.2 -27.6°
